www.pogodaiklimat.ru

Погода и климат >> Архив погоды >> Россия >> Якутия >> Усть-Нера


ПОГОДА в Усть-Нере

  • Прогноз погоды в Усть-Нере
  • Монитор погоды в Усть-Нере
  • Климат города

АРХИВ ПОГОДЫ в Усть-Нере

Время (UTC), дата Ветер
(напр.,м/с)
 
Видим.   Явления Облачность Т
(С)
Тd
(С)
f
(%)
Тe
(С)
Тes
(С)
Комфортность P
(гПа)
Po
(гПа)
Тmin
(С)
Tmax
(С)
R
(мм)
R24
(мм)
S
(см)
00 21.05 В 6
{10}
50 км 10/3 1500 м
[Sc Ci fib]
+5.1 -1.1 64 0 +3 998.7 937.4
03 21.05 СВ 7
{12}
50 км 10/5 1500 м
[Sc Cs]
+7.2 -1.9 52 +3 +4 998.2 937.4
06 21.05 СВ 8
{13}
50 км 10/5 1500 м
[Sc Cs]
+5.4 -5.8 44 0 +1 999.4 938.1
09 21.05 В 8
{12}
50 км 10/1 1500 м
[Sc Cs]
+3.8 -7.1 45 -2 -2 1001.5 939.7 +8.6
12 21.05 В 5
{12}
50 км 10/3 1500 м
[Sc Ac trans Cs]
+1.7 -7.3 51 -3 -3 1003.6 941.2
15 21.05 СВ 3 50 км 9/3 1500 м
[Sc Ci fib]
+0.6 -6.7 58 -3 -3 1004.7 942.0
18 21.05 В 5
{10}
50 км 8/3 1500 м
[Sc Ci fib]
-0.3 -6.3 64 -6 -6 1006.0 943.0
21 21.05 В 6
{11}
50 км 8/3 1500 м
[Sc Ci fib]
+1.9 -6.1 55 -4 -3 1006.0 943.5 -0.4
00 22.05 В 7
{10}
50 км 6/3 1500 м
[Sc Ci fib]
+6.4 -2.7 52 +2 +4 1004.7 943.3
03 22.05 В 2 50 км 8/4 1500 м
[Sc Ci fib]
+9.2 -2.1 45 +8 +14 1003.6 942.8
06 22.05 В 2 50 км 8/8 1500 м
[Cu hum]
+11.0 -2.9 38 +10 +12 1002.9 942.5
09 22.05 СВ 7 50 км 4/4 1500 м
[Cu hum]
+9.1 -3.8 40 +6 +6 1004.4 943.5 +11.6
12 22.05 СВ 6
{10}
50 км 3/3 1500 м
[Sc]
+5.7 -6.2 42 +2 +2 1006.9 945.1
15 22.05 В 4 20 км 1/1 1500 м
[Sc]
+1.6 -5.3 60 -3 -3 1009.1 946.3
18 22.05 СВ 4 50 км 3/3 1500 м
[Sc]
-1.4 -7.8 62 -7 -7 1011.2 947.6
21 22.05 СВ 6 50 км 1/1 1500 м
[Sc]
+2.9 -4.3 59 -2 -1 1010.7 948.1 -1.6
00 23.05 СВ 6 50 км 4/4 1500 м
[Sc Ac trans]
+8.6 -0.9 51 +5 +7 1009.1 947.9
03 23.05 ЮВ 2 50 км 8/8 1500 м
[Cb cap]
+11.2 -1.1 42 +10 +13 1007.8 947.2
06 23.05 В 2 50 км 9/9 1500 м
[Cb cap]
+12.0 -2.4 37 +11 +12 1007.7 947.2
09 23.05 В 2 50 км 8/4 1500 м
[Sc Ac trans]
+11.4 -3.4 35 +11 +11 1008.1 947.5 +14.1
12 23.05 СВ 2 50 км 6/3 1500 м
[Sc Ci fib]
+6.2 -4.1 48 +4 +4 1010.3 948.5
15 23.05 СВ 4 20 км 4/1 1500 м
[Sc Ci fib]
+2.9 -4.7 57 -1 -1 1011.5 948.9
18 23.05 СВ 1 50 км 8/3 1500 м
[Sc Ac trans]
-0.9 -7.1 63 -3 -2 1013.2 949.6
21 23.05 СВ 2 50 км 1/1 1500 м
[Sc]
+4.4 -3.0 59 +2 +5 1011.7 949.4 -2.7
00 24.05 Ю 1 50 км 1/1 1500 м
[Cu hum]
+9.9 -0.7 48 +10 +20 опасность
простуды
1008.8 947.8
03 24.05 З 2 50 км 3/3 1500 м
[Cu hum]
+13.8 -1.1 36 +14 +22 1006.0 946.0
06 24.05 ЮВ 1 50 км 1/1 1500 м
[Cu hum]
+16.4 -2.1 28 +17 +25 1003.5 944.2
09 24.05 ЮВ 1 50 км 1/1 1500 м
[Cu hum]
+18.6 +0.2 29 +20 +22 1001.5 942.8 +18.7
12 24.05 штиль 0 50 км 3/1 1500 м
[Cu hum Ac trans]
+9.0 -5.2 36 +8 +8 1003.1 942.3
15 24.05 штиль 0 50 км 3/0
[Ac trans]
+2.2 -7.8 48 +2 +2 1004.1 941.7
18 24.05 штиль 0 50 км 10/0
[Ac trans Ci fib]
+0.9 -6.3 59 0 +1 1003.1 940.5
21 24.05 В 3 50 км 10/4 1500 м
[Sc Ac trans Ci fib]
+8.3 0.0 56 +6 +7 999.2 938.5 +0.3
00 25.05 штиль 0 50 км 10/4 1500 м
[Cb cap As trans]
+12.6 +0.1 42 +13 +16 995.8 936.2
03 25.05 В 3 20 км слабый ливневой дождь 10/8 1500 м
[Cb cap As op]
+10.7 +5.5 70 +9 +9 994.5 934.5
06 25.05 В 1 50 км в посл. час ливневой дождь 9/9 1500 м
[Cb cap]
+11.3 +5.7 68 +11 +12 992.7 933.1
09 25.05 В 3 50 км {ливн. осадки} 9/8 1500 м
[Cb cap Ac trans]
+9.0 +5.0 76 +7 +7 993.8 933.6 +13.7 0.7
12 25.05 В 4 50 км {ливн. осадки} 9/8 1500 м
[Cb cap Ac trans]
+7.4 +3.4 76 +4 +4 993.3 932.9
15 25.05 ЮЗ 4 20 км слабый ливневой дождь 10/8 1500 м
[Cb cap Ac und]
+6.3 +3.5 82 +3 +3 993.9 933.1
18 25.05 З 5 20 км слабый ливневой дождь 10/8 1410 м
[Cb cap Ac und]
+5.5 +5.3 99 +1 +1 994.7 933.7
21 25.05 З 6 50 км {ливн. осадки} 10/8 1320 м
[Cb cap Ac und]
+7.9 +4.2 77 +4 +4 995.3 934.8 +5.1 0.5
00 26.05 ЮЗ 4 50 км в посл. час ливневой дождь 10/6 1320 м
[Cb cap Ac und]
+8.1 +5.0 81 +5 +6 995.9 935.4
03 26.05 З 3
{10}
50 км {ливн. осадки} 9/5 1500 м
[Cb cap Ac trans]
+10.2 +1.6 55 +8 +11 996.1 936.0
06 26.05 ЮЗ 7
{13}
50 км в посл. час ливневой дождь 10/10 1410 м
[Cb cap]
+6.9 +0.6 64 +2 +2 998.3 937.4
09 26.05 З 5
{12}
50 км в посл. час ливневой дождь 10/4 1500 м
[Cb cap As trans Ci fib]
+5.7 +3.6 86 +1 +2 999.2 938.0 +12.6 2
12 26.05 З 3 50 км {ливн. осадки} 6/5 1500 м
[Sc diur, vesp Ac trans]
+4.1 +2.4 89 0 0 1000.9 939.3
15 26.05 ЮЗ 4 50 км 1/1 1500 м
[Sc diur, vesp]
+1.7 +0.6 92 -3 -3 1002.6 940.3
18 26.05 З 4 50 км 1/1 1500 м
[Sc]
-0.3 -1.2 94 -6 -6 1003.9 941.1
21 26.05 ЮЗ 3 50 км 4/1 1500 м
[Sc Ac trans]
+5.4 -1.3 62 +2 +5 1003.1 941.5 -0.5
00 27.05 З 2 50 км 3/3 1500 м
[Cu hum]
+10.9 -1.6 42 +10 +17 1001.0 940.7
03 27.05 ЮЗ 2 50 км 6/6 1500 м
[Cu hum]
+15.2 -0.5 34 +15 +20 998.4 939.2
06 27.05 штиль 0 50 км 8/8 1500 м
[Cb cap]
+15.0 -3.2 28 +15 +17 997.1 937.8
09 27.05 З 7
{11}
50 км 10/8 1500 м
[Cb cap Ac und]
+12.2 -4.4 31 +10 +10 998.1 938.2 +15.8
12 27.05 СЗ 2 50 км 8/8 1500 м
[Cb cap]
+7.8 -4.3 42 +6 +6 1000.2 939.4
15 27.05 З 3
{12}
50 км {ливн. осадки} 9/9 1500 м
[Cb cap]
+6.0 -0.6 63 +3 +3 1001.4 940.1
18 27.05 З 4
{10}
50 км {ливн. осадки} 9/6 1500 м
[Cb cap Ac trans]
+4.1 -2.7 61 0 0 1002.9 941.0

 

Местоположение метеостанции Усть-Нера (Якутия, Россия): широта 64.53 долгота 143.10 высота над уровнем моря 519 м.

В архиве по умолчанию представлена погода в Усть-Нере за последнюю неделю. Архивные данные за месяц целиком и за предыдущие месяцы, начиная с января 2011 года, Вы можете получить, выбрав интересующий диапазон дат из раскрывающегося списка и нажав кнопку "Ввод!".

Внимание! Время в таблицах - всемирное. Для получения местного времени необходимо прибавить поправку, которая в Усть-Нере равна 10 ч.

Смотрите также архив погоды в соседних городах и на ближайших метеорологических станциях:

Погода в Юртах (Якутия, Россия) (82 км)
Погода в Оймяконе (Якутия, Россия) (142 км)
Погода в Делянкире (Якутия, Россия) (144 км)
Погода в Агаякане (Якутия, Россия) (150 км)
Погода в Усть-Моме (Якутия, Россия) (214 км)
Погода в Восточной (Якутия, Россия) (224 км)
Погода в Сусумане (Магаданская область, Россия) (314 км)
Погода в Иэме (Якутия, Россия) (355 км)
Погода в Томпо (Якутия, Россия) (359 км)
Погода в Теплом Ключе (Якутия, Россия) (367 км)

Пояснения к столбцам:

Ветер - указаны скорость ветра в м/с - средняя за 10 мин, порывы в срок и между сроками (в фигурных скобках) и направление, откуда дует ветер: С - северный, СВ - северо-восточный, В - восточный, ЮВ - юго-восточный, Ю - южный, ЮЗ - юго-западный, З - западный, СЗ - северо-западный.
Видимость - горизонтальная дальность видимости в метрах или километрах. При видимости от 1 до 10 км при отсутствии осадков обычно наблюдается дымка, при ухудшении видимости до 1 км и менее - туман. В сухую погоду видимость может ухудшаться дымом, пылью или мглою.
Явления - указаны атмосферные явления, наблюдавшиеся в срок или в последний час перед сроком; фигурными скобками обозначены явления, наблюдавшиеся между сроками (за 1-3 часа до срока); квадратными скобками обозначены град или гололедные отложения с указанием их диаметра в мм.
Облачность - указаны через наклонную черту общая и нижняя облачность в баллах и высота нижней границы облаков в метрах; квадратными скобками обозначены формы облаков: Ci - перистые, Cs - перисто-слоистые, Cc - перисто-кучевые, Ac - высококучевые, As - высокослоистые, Sc - слоисто-кучевые, Ns - слоисто-дождевые, Cu - кучевые, Cb - кучево-дождевые. Подробнее классификацию облаков см. в Атласе облаков (PDF).
T - Температура воздуха - температура, измеренная на высоте 2 м над землей.
Td - Температура точки росы - температура, при понижении до которой содержащийся в воздухе водяной пар достигнет насыщения.
f - Относительная влажность воздуха - влажноcть воздуха, измеренная на высоте 2 м над землей.
Te - Эффективная температура - температура, которую ощущает одетый по сезону человек в тени. Характеристика душности погоды. При расчете учитывается влияние влажности воздуха и скорости ветра на теплоощущения человека.
Tes - Эффективная температура на солнце - температура, которую ощущает человек, с поправкой на солнечный нагрев. Характеристика знойности погоды. Зависит от высоты солнца над горизонтом, облачности и скорости ветра. Ночью, в пасмурную погоду, а также при ветре 12 м/с и более поправка равна нулю.
P - Атмосферное давление - приведенное к уровню моря атмосферное давление.
Po - Атмосферное давление - измеренное на уровне метеостанции атмосферное давление.
Tmin - Минимальная температура - минимум температуры воздуха на высоте 2 м над землей.
Tmax - Максимальная температура - максимум температуры воздуха на высоте 2 м над землей.
R - Количество осадков - Количество выпавших осадков за период времени, мм. При наведении курсора мыши на число - период времени, за который выпало указанное количество осадков.
R24 - Количество осадков - Количество выпавших осадков за 24 часа, мм.
S - Снежный покров - Высота снежного покрова, см. При наведении курсора мыши на число - состояние снежного покрова и степень покрытия местности в баллах.